MST,Max TemperatureF,Mean TemperatureF,Min TemperatureF,Max Dew PointF,MeanDew PointF,Min DewpointF,Max Humidity, Mean Humidity, Min Humidity, Max Sea Level PressureIn, Mean Sea Level PressureIn, Min Sea Level PressureIn, Max VisibilityMiles, Mean VisibilityMiles, Min VisibilityMiles, Max Wind SpeedMPH, Mean Wind SpeedMPH, Max Gust SpeedMPH,PrecipitationIn, CloudCover, Events, WindDirDegrees
2013-2-1,49,38,27,27,22,18,81,56,31,30.21,30.07,29.93,10,10,10,29,19,36,0.00,2,,269
2013-2-2,54,43,32,24,22,19,64,45,26,30.34,30.20,30.04,10,10,10,32,22,40,0.00,0,,264
2013-2-3,52,42,32,23,20,18,56,43,29,29.96,29.92,29.82,10,10,10,36,20,44,0.00,1,,259
2013-2-4,47,39,31,25,23,21,69,56,42,29.90,29.82,29.75,10,10,10,40,20,48,0.00,1,,264
2013-2-5,54,42,30,28,24,22,72,51,29,29.91,29.75,29.59,10,10,10,43,17,52,0.00,2,,248
2013-2-6,45,35,24,26,21,16,78,55,31,30.02,29.87,29.71,10,10,10,38,21,45,0.00,0,,260
2013-2-7,53,39,24,21,18,15,81,54,26,30.01,29.94,29.87,10,10,10,21,9,26,0.00,2,,224
2013-2-8,55,35,15,22,16,11,88,55,21,30.03,29.97,29.91,10,10,10,17,7,20,0.00,0,,285
2013-2-9,46,33,19,29,23,13,92,65,37,30.11,29.94,29.83,10,5,0,31,11,37,T,6,Fog-Snow,323
2013-2-10,28,19,9,25,15,7,92,78,63,30.28,30.20,30.03,10,10,3,21,9,24,T,2,Snow,317
2013-2-11,41,22,3,24,17,3,91,73,54,30.09,29.99,29.94,10,10,10,32,17,37,0.00,0,,265
2013-2-12,43,34,24,25,23,20,69,59,49,30.02,29.93,29.81,10,10,10,54,26,62,0.00,0,,258
2013-2-13,49,35,20,26,22,16,92,62,31,30.29,30.00,29.79,10,8,1,36,21,43,T,4,Snow,309
2013-2-14,39,26,12,20,15,9,88,64,40,30.44,30.36,30.28,10,10,10,21,8,25,0.00,3,,279
2013-2-15,48,33,17,26,22,11,73,56,38,30.42,30.25,30.08,10,10,10,35,22,44,0.00,0,,261
2013-2-16,50,40,30,30,27,24,89,64,39,30.06,29.87,29.64,10,10,10,44,24,53,0.00,0,,254
2013-2-17,37,31,24,29,26,21,92,74,56,30.13,29.86,29.66,10,6,0,31,17,37,0.01,7,Fog-Snow,323
2013-2-18,31,25,18,22,18,15,92,81,69,30.15,30.07,29.94,10,10,10,17,8,20,0.00,3,,148
2013-2-19,27,23,19,22,19,17,92,84,75,29.93,29.81,29.68,10,9,1,16,7,17,T,8,Snow,132
2013-2-20,30,24,17,23,20,16,92,84,75,29.95,29.87,29.77,10,9,2,12,5,14,T,6,Snow,140
2013-2-21,34,22,9,20,15,8,100,76,51,29.99,29.91,29.82,10,10,9,25,10,29,0.00,1,,234
2013-2-22,40,31,21,24,20,15,77,63,48,29.86,29.68,29.46,10,10,10,44,26,52,0.00,1,,251
2013-2-23,37,29,21,25,18,14,78,59,40,30.09,29.74,29.45,10,10,10,35,17,45,0.00,3,,273
2013-2-24,40,30,19,18,16,14,77,57,37,30.11,30.02,29.89,10,10,10,38,25,46,0.00,0,,252
2013-2-25,37,31,24,22,20,18,75,62,48,29.91,29.81,29.74,10,10,10,32,21,40,0.00,3,,254
2013-2-26,36,27,18,24,19,14,92,72,52,30.24,30.15,29.92,10,10,8,21,11,25,0.00,5,,312
2013-2-27,42,29,16,19,16,12,88,61,34,30.25,30.19,30.09,10,10,10,31,14,40,0.00,2,,232
2013-2-28,48,35,21,23,18,10,74,48,21,30.26,30.20,30.11,10,10,10,31,15,36,0.00,1,,264